Location: Ariel
(45.9570°N, 122.5700°W)
Time: 02:58:37
(UTC-07:00)

Transit 4A - Pass Details

Date: 20 July 2019
Orbit: 863 x 981 km, 66.8° (Epoch: 19 August)

Event Time Altitude Azimuth Distance (km) Brightness Sun altitude
Rises 09:49:04 0° 329° (NNW) 3,686 10.7 40.9°
Reaches altitude 10° 09:52:09 10° 342° (NNW) 2,726 10.2 41.4°
Maximum altitude 09:57:23 26° 37° (NE) 1,797 10.0 42.3°
Drops below altitude 10° 10:02:30 10° 93° (E) 2,662 11.3 43.1°
Sets 10:05:28 0° 106° (ESE) 3,583 11.8 43.6°
